Time,TemperatureF,DewpointF,PressureIn,WindDirection,WindDirectionDegrees,WindSpeedMPH,WindSpeedGustMPH,Humidity,HourlyPrecipIn,Conditions,Clouds,dailyrainin,SoftwareType,DateUTC
2013-03-10 22:33:00,34.0,32.9,29.68,NE,39,14.0,14.0,96,0.07,,,0.99,meteohub,2013-03-11 03:33:00,
2013-03-10 22:34:00,34.0,32.9,29.68,NE,49,13.0,13.0,96,0.07,,,0.99,meteohub,2013-03-11 03:34:00,
2013-03-10 22:35:00,34.0,32.9,29.68,NE,38,13.0,15.0,96,0.08,,,1.00,meteohub,2013-03-11 03:35:00,
2013-03-10 22:41:00,34.0,32.9,29.68,NNE,26,11.0,18.0,96,0.07,,,1.00,meteohub,2013-03-11 03:41:00,
2013-03-10 22:47:00,34.0,32.9,29.68,NE,40,17.0,18.0,96,0.06,,,1.00,meteohub,2013-03-11 03:47:00,
2013-03-10 22:52:00,33.8,32.7,29.68,NNE,22,14.0,18.0,96,0.06,,,1.00,meteohub,2013-03-11 03:52:00,
2013-03-10 22:57:00,33.6,32.5,29.67,NNE,18,9.0,18.0,96,0.05,,,1.00,meteohub,2013-03-11 03:57:00,
2013-03-10 23:00:00,33.6,32.5,29.67,NE,36,15.0,18.0,96,0.05,,,1.00,meteohub,2013-03-11 04:00:00,
2013-03-10 23:01:00,33.6,32.5,29.67,NE,36,15.0,18.0,96,0.05,,,1.01,meteohub,2013-03-11 04:01:00,
2013-03-10 23:03:00,33.6,32.5,29.67,NE,42,12.0,18.0,96,0.05,,,1.01,meteohub,2013-03-11 04:03:00,
2013-03-10 23:05:00,33.6,32.5,29.67,NNE,27,12.0,17.0,96,0.05,,,1.01,meteohub,2013-03-11 04:05:00,
2013-03-10 23:10:00,33.6,32.5,29.67,NNE,30,12.0,18.0,96,0.04,,,1.01,meteohub,2013-03-11 04:10:00,
2013-03-10 23:16:00,33.6,32.5,29.67,NNE,33,9.0,18.0,96,0.03,,,1.01,meteohub,2013-03-11 04:16:00,
2013-03-10 23:22:00,33.6,32.5,29.67,NNE,22,13.0,17.0,96,0.03,,,1.01,meteohub,2013-03-11 04:22:00,
2013-03-10 23:27:00,33.6,32.5,29.66,NNE,20,14.0,18.0,96,0.02,,,1.01,meteohub,2013-03-11 04:27:00,
2013-03-10 23:32:00,33.4,32.4,29.66,NNE,22,12.0,18.0,96,0.02,,,1.01,meteohub,2013-03-11 04:32:00,
2013-03-10 23:37:00,33.4,32.4,29.67,NNE,27,11.0,17.0,96,0.01,,,1.01,meteohub,2013-03-11 04:37:00,
2013-03-10 23:42:00,33.4,32.4,29.66,NNE,24,15.0,17.0,96,0.02,,,1.02,meteohub,2013-03-11 04:42:00,
2013-03-10 23:47:00,33.4,32.4,29.66,NE,38,12.0,17.0,96,0.02,,,1.02,meteohub,2013-03-11 04:47:00,
2013-03-10 23:52:00,33.4,32.4,29.67,NNE,23,6.0,18.0,96,0.02,,,1.02,meteohub,2013-03-11 04:52:00,
2013-03-10 23:57:00,33.4,32.4,29.68,North,0,7.0,18.0,96,0.01,,,1.02,meteohub,2013-03-11 04:57:00,